Lid_Strength_Index
1 -0 -0 -1 -1 -1 -1 -1 -1 -1 -1 -1 -1 -1 -1 -1 -1 -1 -1 -1 -1 -2 -2 -2 -2 -2 -2 -2 -2 -1 -2 -1 -1 -1 -2 -2 -2 -2 -1 -2 -2 -1 -2
0 -0 -0 -1 -1 -1 -1 -1 -1 -1 -1 -1 -1 -1 -1 -1 -1 -1 -1 -1 -1 -2 -2 -1 -1 -2 -2 -2 -2 -2 -2 -2 -1 -1 -2 -2 -2 -2 -2 -2 -2 -1 -2
0 -0 -1 -0 -1 -1 -1 -1 -1 -1 -1 -1 -1 -1 -1 -1 -1 -1 -1 -1 -1 -2 -2 -1 -2 -1 -2 -2 -2 -2 -2 -2 -2 -2 -2 -0 -0 -2 -2 -1 -2 -2 -2
0 -0 -0 -0 -1 -1 -1 -1 -1 -1 -1 -1 -1 -1 -1 -1 -1 -1 -1 -1 -1 -2 -2 -1 -1 -1 -1 -2 -2 -2 -2 -2 -2 -2 -1 -0 -1 -1 -2 -2 -1 -1 -1
0 -0 -0 -0 -0 -1 -1 -1 -1 -1 -1 -1 -1 -1 -1 -1 -1 -1 -1 -1 -2 -2 -2 -1 -2 -1 -2 -2 -2 -2 -1 -1 -1 -1 -0 0 0 -1 -2 -1 -1 -1 -2
0 -0 -0 -0 -0 -1 -1 -1 -1 -1 -1 -1 -1 -1 -1 -1 -1 -1 -1 -1 -1 -2 -2 -1 -1 -1 -2 -2 -2 -2 -2 -2 -1 2 1 -1 -0 -2 -2 -2 -2 -2 -2
0 -0 -0 -0 -0 -1 -1 -1 -1 -1 -1 -1 -1 -1 -1 -1 -1 -1 -1 -1 -1 -2 -1 -1 -1 -1 -1 -2 -2 -2 -2 -2 -0 1 0 -1 -1 -2 -2 -1 -2 -2 -2
0 -0 -0 -1 -1 -0 -0 -0 -0 -0 -1 -1 -1 -1 -1 -1 -1 -1 -1 -1 -1 -1 -1 -1 -1 -2 -2 -2 -2 -2 -1 -1 -1 1 1 -0 -1 -2 -1 -1 -2 -2 -2
-0 -0 0 -0 -1 -0 0 0 0 -0 -0 -0 -0 -1 -1 -1 -1 -1 -1 -1 -1 -1 -1 -2 -2 -2 -2 -2 -1 -1 -1 -1 1 1 -0 -0 -2 -2 -2 -2 -2 -2 -2
1 0 0 0 0 0 0 0 -0 -0 -0 -0 -1 -0 -0 -1 -1 -1 -1 -1 -1 -1 -1 -2 -2 -2 -1 -1 -1 -1 -1 -1 2 2 1 1 -2 -2 -2 -2 -2 -2 -2
1 1 0 0 0 0 0 -0 -0 -1 -0 -0 -1 -1 1 -0 -0 -1 -0 -0 -1 -1 -1 -1 -1 -1 -1 -1 -1 -1 -1 2 3 1 1 0 -2 -2 -2 -2 -2 -2 -3
2 2 0 0 1 0 -0 0 0 -0 0 0 -0 0 0 0 0 -1 -1 -0 -1 -0 -1 -1 -1 -1 -1 0 0 -1 0 1 2 2 1 -0 -2 -2 -2 -2 -2 -2 -2
2 2 1 0 0 0 1 -0 0 0 0 0 0 0 0 0 0 0 0 0 0 -0 0 -0 -0 -0 0 0 0 1 1 0 -0 1 -0 -0 -1 -2 -2 -2 -2 -2 -2
2 1 1 0 0 0 1 0 0 0 0 0 0 0 1 0 0 1 0 0 0 0 0 1 0 0 0 0 0 0 1 1 0 -0 1 0 -1 -2 -2 -2 -2 -2 -2
5 2 1 0 1 0 1 1 1 1 0 0 0 0 0 1 1 1 0 -0 -0 1 1 1 0 0 0 0 -0 0 0 0 0 0 1 0 0 -1 -2 -2 -2 -2 -2
5 5 2 1 0 1 0 1 1 0 0 1 1 0 0 1 0 1 1 1 1 1 1 1 0 0 0 0 0 0 0 0 0 0 0 0 1 0 -1 -1 -2 -2 -2
6 6 5 5 1 1 1 1 0 0 -0 1 1 0 -0 0 1 0 1 1 1 1 2 1 1 1 1 1 1 1 0 0 0 0 0 0 0 2 1 -1 -1 -1 -1
7 6 6 5 6 5 3 1 0 1 0 0 0 -0 0 -0 0 1 0 1 1 1 1 2 2 2 1 1 1 2 1 1 1 0 0 0 -0 -0 1 1 -0 -1 -1
8 8 8 7 6 6 5 4 2 1 0 0 -0 -0 1 0 0 1 1 0 1 1 2 1 2 2 2 2 2 2 1 1 1 0 1 1 1 0 0 0 1 1 -0
6 9 9 9 8 7 6 6 3 4 3 2 1 1 0 -0 -0 0 1 1 0 2 2 2 2 2 2 2 1 1 2 1 1 1 1 1 0 0 0 1 1 0 1
5 6 8 9 10 9 8 7 5 6 5 6 6 5 6 5 0 1 0 1 1 1 2 3 3 3 2 2 3 2 2 2 2 1 0 1 1 1 1 0 0 0 1
6 5 5 6 5 6 6 7 6 5 5 7 6 7 7 6 7 4 1 1 0 1 1 2 3 3 3 2 3 4 5 4 2 1 1 1 1 1 1 1 0 0 0
7 6 6 6 6 6 6 6 6 6 6 8 9 8 7 7 7 7 7 7 4 1 1 1 1 2 3 3 2 3 6 6 5 3 2 1 1 1 1 1 0 0 0
6 6 6 6 6 6 6 7 8 7 8 7 7 9 8 8 7 8 8 8 7 6 5 1 1 1 2 3 3 2 2 3 5 6 3 3 1 1 2 2 1 0 0
7 7 7 6 6 7 7 7 7 8 8 7 7 7 7 7 7 7 8 8 8 8 7 6 4 1 2 2 2 2 3 2 3 4 6 4 3 1 1 2 1 0 0
7 8 8 7 7 7 7 8 8 8 8 8 8 8 7 7 7 7 8 7 8 8 7 7 6 5 1 1 1 2 3 3 4 4 5 4 4 2 2 1 1 1 0